OPS 4682 DEB, 18479

Orbit data source: Space-Track

OPS 4682 DEB, 18479 is space debris in LEO originally from a launch on Sat, 03 Apr 1965 UTC launched from the Air Force Western Test Range (AFWTR). Debris objects in space refer to the collection of defunct objects orbiting the Earth. Examples of debris include non-operational satellites, rocket bodies, and fragments generated from explosions, collisions, or faulty payload assembly.

Loading next visibility...
Identifier
18479, 1965-027AC
Orbit
LEO
Country
Flag of USUS
Related business
Manufacturer
Unknown
Mission
Spacecraft
Bus & Motor
Unknown
Mass
Unknown
Launch date (UTC)
1965-04-03 (61 years ago)
Launch vehicle
Unknown
Launch site
Air Force Western Test Range (AFWTR)
Object type
Payload
Rocket body
Debris
Shape & HBR
Unknown shape, 0.1 m
Radar Cross Section
Small (<0.1 m²)

Expand to show TLE details & history
Last TLE update: 1 day ago

TLE from 1 day ago
0 OPS 4682 DEB
1 18479U 65027AC  26034.89485177  .00000671  00000-0  22801-2 0  9992
2 18479  90.2386   2.9015 0031291  54.4185 332.8058 12.97525649930471
Epoch: 2026-02-03T21:28Z
TLE epoch observation values (Epoch: 2026-02-03T21:28:35.192Z)
Latitude
27.09406°
Longitude
-93.43582°
Altitude
1,253.825 km
Speed
7.241 km/s
True Right ascension
00h 11m 07s
True Declination
26° 57' 50"
Sunlit
Object was in daylight at epoch
Visualization orbit readout
Latitude
Unknown
Longitude
Unknown
Altitude
Unknown
Speed
Unknown
Apparent Right ascension
Unknown
Apparent Declination
Unknown
Sunlit
N/A
Visualization observer readout
Local Sidereal Time
10:11:30
Azimuth
Unknown
Elevation
Unknown
Doppler factor
Unknown
Orbital elements
Apogee altitude
1,292.856 km
Perigee altitude
1,244.999 km
Semi-major axis
7,647.064 km
Eccentricity
0.00313
Inclination
90.2386°
RAAN
2.9015°
Arg. of periapsis
54.4185°
True anomaly
332.64136°
Mean anomaly
332.8058°
Eccentric anomaly
332.72364°
Mean motion
3.24565 °/min
Orbital period
110.92 mins
BSTAR
0.0022801
Loading maneuver chart data...
Computing Atmospheric mass density...
Loading historical data...
Loading historical data...
Loading historical data...
Loading historical data...
Loading historical data...
Loading historical data...
Loading historical data...

Documentation

Showing up to 5 results
|